Date String (YYYY-MM-DD hh:mm:ss) UTC,Instrument flags,absolute air pressure of the measurement (hPa),sample flow rate (lpm),inlet stack bypass flow (lpm),air temperature of the measurement (°C),ambient temperature measured by the external sensor (°C),aerosol sample conditioner tube jacket temperature (°C),OPC LED temperature (°C),internal box temperature (°C),relative humidity of the measurement (%),span deviation,mass concentration of particles derived from Lorenz-Mie calculation of OPC scattering (μg/m³),mass concentration of particles derived from Lorenz-Mie calculation of OPC scattering (μg/m³),mass concentration of particles derived from Lorenz-Mie calculation of OPC scattering (μg/m³)
DateTimeUTC,F1_M11,P_M11,Q1_M11,Q2_M11,T1_M11,T2_M11,T3_M11,T4_M11,T5_M11,U1_M11,ZSPAN_M11,X0_M11,X2_M11,X1_M11
2023-07-24 20:00:00,SystemResetWarning,0834.7,5.01,000.00,028.4,025.3,000.0,036.6,029.9,24.0,0000.0,0011.32,0004.53,0003.92
2023-07-24 20:01:00,SystemResetWarning,0834.7,5.00,000.00,028.4,025.7,000.0,036.7,029.9,24.2,0000.0,0010.63,0004.42,0003.84
2023-07-24 20:02:00,SystemResetWarning,0834.8,5.00,000.00,028.5,026.2,000.0,036.7,030.0,24.0,0000.0,0010.43,0004.39,0003.81
2023-07-24 20:03:00,SystemResetWarning,0834.7,5.00,000.00,028.5,026.6,000.0,036.8,030.2,25.2,0000.0,0010.17,0004.39,0003.80
2023-07-24 20:04:00,SystemResetWarning,0834.8,5.01,000.00,028.5,027.0,000.0,036.8,030.3,24.1,0000.0,0010.58,0004.38,0003.77
2023-07-24 20:05:00,SystemResetWarning,0834.7,5.00,000.00,028.6,027.1,000.0,036.8,030.3,23.5,0000.0,0009.99,0004.32,0003.74
2023-07-24 20:06:00,SystemResetWarning,0834.8,4.98,000.00,028.6,025.9,000.0,036.7,030.2,24.1,0000.0,0009.47,0004.30,0003.71
2023-07-24 20:07:00,SystemResetWarning,0834.8,5.02,000.00,028.5,024.9,000.0,036.7,030.0,25.9,0000.0,0009.56,0004.29,0003.68
2023-07-24 20:08:00,SystemResetWarning,0834.9,5.01,000.00,028.5,025.1,000.0,036.6,029.9,24.4,0000.0,0009.73,0004.24,0003.69
2023-07-24 20:09:00,SystemResetWarning,0835.2,4.99,000.00,028.5,025.5,000.0,036.7,029.9,26.9,0000.0,0010.11,0004.24,0003.70
2023-07-24 20:10:00,SystemResetWarning,0835.1,4.99,000.00,028.4,025.9,000.0,036.7,029.9,26.8,0000.0,0010.59,0004.34,0003.76
2023-07-24 20:11:00,SystemResetWarning,0835.1,5.01,000.00,028.5,026.4,000.0,036.8,030.1,27.5,0000.0,0010.71,0004.43,0003.82
2023-07-24 20:12:00,SystemResetWarning,0835.1,5.01,000.00,028.5,026.8,000.0,036.8,030.2,26.8,0000.0,0011.25,0004.52,0003.87
2023-07-24 20:13:00,SystemResetWarning,0835.2,4.99,000.00,028.6,027.2,000.0,036.8,030.3,26.8,0000.0,0012.21,0004.60,0003.90
2023-07-24 20:14:00,SystemResetWarning,0834.8,4.99,000.00,028.6,026.7,000.0,036.8,030.3,24.8,0000.0,0012.65,0004.62,0003.91
2023-07-24 20:15:00,SystemResetWarning,0834.6,5.01,000.00,028.6,025.2,000.0,036.7,030.1,24.7,0000.0,0012.29,0004.63,0003.93
2023-07-24 20:16:00,SystemResetWarning,0834.6,5.00,000.00,028.5,024.9,000.0,036.6,030.0,24.4,0000.0,0013.13,0004.64,0003.94
2023-07-24 20:17:00,SystemResetWarning,0834.7,5.01,000.00,028.5,025.3,000.0,036.7,029.9,25.6,0000.0,0012.61,0004.60,0003.95
2023-07-24 20:18:00,SystemResetWarning,0834.6,5.01,000.00,028.4,025.7,000.0,036.7,029.9,25.9,0000.0,0012.58,0004.60,0003.97
2023-07-24 20:19:00,SystemResetWarning,0834.7,5.00,000.00,028.5,026.1,000.0,036.7,030.0,27.1,0000.0,0012.13,0004.62,0003.97
2023-07-24 20:20:00,SystemResetWarning,0834.7,5.00,000.00,028.5,026.5,000.0,036.8,030.1,27.4,0000.0,0011.80,0004.63,0003.96
2023-07-24 20:21:00,SystemResetWarning,0834.6,5.00,000.00,028.5,026.9,000.0,036.8,030.2,28.2,0000.0,0012.22,0004.63,0003.96
2023-07-24 20:22:00,SystemResetWarning,0834.6,5.00,000.00,028.6,027.1,000.0,036.8,030.3,25.4,0000.0,0012.53,0004.64,0003.98
2023-07-24 20:23:00,SystemResetWarning,0834.8,4.98,000.00,028.6,026.0,000.0,036.7,030.2,24.6,0000.0,0013.09,0004.69,0004.01
2023-07-24 20:24:00,SystemResetWarning,0835.1,5.01,000.00,028.5,025.0,000.0,036.7,030.0,24.4,0000.0,0012.62,0004.70,0004.04
2023-07-24 20:25:00,SystemResetWarning,0835.1,5.02,000.00,028.5,025.1,000.0,036.6,030.0,25.1,0000.0,0012.74,0004.75,0004.07
2023-07-24 20:26:00,SystemResetWarning,0835.0,5.00,000.00,028.5,025.5,000.0,036.7,029.9,26.6,0000.0,0012.70,0004.75,0004.08
2023-07-24 20:27:00,SystemResetWarning,0835.0,5.00,000.00,028.5,026.0,000.0,036.7,030.0,27.0,0000.0,0012.45,0004.81,0004.09
2023-07-24 20:28:00,SystemResetWarning,0834.9,5.00,000.00,028.5,026.4,000.0,036.8,030.1,25.1,0000.0,0013.04,0004.89,0004.09
2023-07-24 20:29:00,SystemResetWarning,0834.8,5.00,000.00,028.5,026.8,000.0,036.8,030.2,23.4,0000.0,0013.24,0004.90,0004.09
2023-07-24 20:30:00,SystemResetWarning,0834.6,5.00,000.00,028.6,027.0,000.0,036.8,030.3,23.7,0000.0,0013.63,0004.87,0004.07
2023-07-24 20:31:00,SystemResetWarning,0834.9,4.98,000.00,028.6,025.9,000.0,036.7,030.1,25.5,0000.0,0013.94,0004.83,0004.06
2023-07-24 20:32:00,SystemResetWarning,0834.7,5.01,000.00,028.5,024.9,000.0,036.7,029.9,27.3,0000.0,0013.67,0004.84,0004.05
2023-07-24 20:33:00,SystemResetWarning,0834.5,5.00,000.00,028.5,025.1,000.0,036.6,029.9,26.9,0000.0,0013.04,0004.80,0004.03
2023-07-24 20:34:00,SystemResetWarning,0834.8,4.98,000.00,028.4,025.5,000.0,036.7,029.9,23.5,0000.0,0012.48,0004.75,0004.01
2023-07-24 20:35:00,SystemResetWarning,0835.1,5.01,000.00,028.4,025.9,000.0,036.7,030.0,22.6,0000.0,0012.06,0004.68,0003.97
2023-07-24 20:36:00,SystemResetWarning,0835.1,5.02,000.00,028.5,026.4,000.0,036.7,030.1,22.8,0000.0,0011.57,0004.60,0003.92
2023-07-24 20:37:00,SystemResetWarning,0835.0,4.99,000.00,028.5,026.8,000.0,036.8,030.2,23.3,0000.0,0012.02,0004.57,0003.87
2023-07-24 20:38:00,SystemResetWarning,0834.8,5.00,000.00,028.6,027.2,000.0,036.8,030.3,22.8,0000.0,0011.72,0004.50,0003.85
2023-07-24 20:39:00,SystemResetWarning,0834.5,4.99,000.00,028.6,026.9,000.0,036.8,030.3,22.8,0000.0,0010.77,0004.44,0003.84
2023-07-24 20:40:00,SystemResetWarning,0834.5,5.00,000.00,028.6,025.3,000.0,036.7,030.1,23.9,0000.0,0010.42,0004.39,0003.82
2023-07-24 20:41:00,SystemResetWarning,0834.5,5.00,000.00,028.5,024.9,000.0,036.6,030.0,24.6,0000.0,0010.12,0004.38,0003.82
2023-07-24 20:42:00,SystemResetWarning,0834.5,5.01,000.00,028.5,025.3,000.0,036.6,029.9,25.1,0000.0,0010.08,0004.42,0003.82
2023-07-24 20:43:00,SystemResetWarning,0834.4,4.99,000.00,028.5,025.7,000.0,036.7,029.9,22.8,0000.0,0009.92,0004.42,0003.82
2023-07-24 20:44:00,SystemResetWarning,0834.4,4.99,000.00,028.5,026.2,000.0,036.7,030.1,23.8,0000.0,0009.85,0004.39,0003.82
2023-07-24 20:45:00,SystemResetWarning,0834.3,5.00,000.00,028.5,026.6,000.0,036.8,030.2,24.6,0000.0,0010.67,0004.36,0003.81
2023-07-24 20:46:00,SystemResetWarning,0834.4,5.01,000.00,028.6,027.0,000.0,036.8,030.3,23.6,0000.0,0010.67,0004.36,0003.81
2023-07-24 20:47:00,SystemResetWarning,0834.3,5.00,000.00,028.6,026.7,000.0,036.8,030.3,23.8,0000.0,0010.51,0004.37,0003.82
2023-07-24 20:48:00,SystemResetWarning,0834.4,4.98,000.00,028.6,025.3,000.0,036.7,030.1,24.0,0000.0,0010.13,0004.37,0003.82
2023-07-24 20:49:00,SystemResetWarning,0834.2,5.01,000.00,028.5,024.9,000.0,036.6,030.0,24.2,0000.0,0009.60,0004.38,0003.84
2023-07-24 20:50:00,SystemResetWarning,0834.4,5.00,000.00,028.5,025.3,000.0,036.7,029.9,24.7,0000.0,0009.77,0004.41,0003.85
2023-07-24 20:51:00,SystemResetWarning,0834.4,4.99,000.00,028.4,025.7,000.0,036.7,029.9,24.4,0000.0,0010.36,0004.41,0003.86
2023-07-24 20:52:00,SystemResetWarning,0834.4,4.99,000.00,028.5,026.1,000.0,036.7,030.0,24.8,0000.0,0011.10,0004.43,0003.87
2023-07-24 20:53:00,SystemResetWarning,0834.4,5.01,000.00,028.5,026.6,000.0,036.8,030.2,24.1,0000.0,0011.12,0004.44,0003.89
2023-07-24 20:54:00,SystemResetWarning,0834.4,5.01,000.00,028.6,027.0,000.0,036.8,030.3,23.2,0000.0,0010.67,0004.40,0003.90
2023-07-24 20:55:00,SystemResetWarning,0834.3,5.00,000.00,028.6,026.7,000.0,036.8,030.3,23.8,0000.0,0010.69,0004.43,0003.90
2023-07-24 20:56:00,SystemResetWarning,0834.4,4.98,000.00,028.6,025.2,000.0,036.7,030.1,23.8,0000.0,0011.12,0004.46,0003.93
2023-07-24 20:57:00,SystemResetWarning,0834.2,5.01,000.00,028.5,024.9,000.0,036.6,030.0,25.7,0000.0,0011.32,0004.52,0003.95
2023-07-24 20:58:00,SystemResetWarning,0834.2,5.01,000.00,028.5,025.3,000.0,036.6,029.9,25.5,0000.0,0011.53,0004.57,0003.97
2023-07-24 20:59:00,SystemResetWarning,0834.2,4.99,000.00,028.4,025.7,000.0,036.7,029.9,26.1,0000.0,0012.62,0004.59,0003.98
